Location: Crocus Hill
(18.2167°N, 63.0667°W)
Time: 21:30:44
(UTC+00:00)

Atlas Centaur 2 - Pass Details

Date: 26 January 2020
Orbit: 459 x 1310 km, 30.4° (Epoch: 19 February)

Event Time Altitude Azimuth Distance (km) Brightness Sun altitude
Rises 00:07:06 0° 303° (WNW) 2,945 5.6 -29.3°
Reaches altitude 10° 00:09:37 10° 317° (NW) 2,165 4.7 -29.9°
Enters shadow 00:11:27 19° 335° (NNW) 1,741 3.9 -30.3°
